Orbital Elements at Epoch 2459200.5 (2020-Dec-17.0) TDB
Reference: JPL 18 (heliocentric ecliptic J2000)
Element | Value | Uncertainty (1-sigma) | Units |
e | .168650298119368 | 3.9178e-08 | |
a | 2.262942208483244 | 9.6897e-09 | au |
q | 1.881296330395644 | 8.749e-08 | au |
i | 6.71028195584565 | 4.7806e-06 | deg |
node | 21.66692067952633 | 3.9916e-05 | deg |
peri | 254.1912813169064 | 4.2535e-05 | deg |
M | 165.4363404393806 | 1.5549e-05 | deg |
tp | 2458629.104211295748 (2019-May-25.60421130) | 5.3273e-05 | TDB |
period | 1243.3935820099 3.40 | 7.9861e-06 2.186e-08 | d yr |
n | .2895302060495386 | 1.8596e-09 | deg/d |
Q | 2.644588086570844 | 1.1324e-08 | au |
|
| | Orbit Determination Parameters
Additional Information
|